UAL2791 KLAX-KTUL

Flight info

Callsign UAL2791
Flight time N/A
Altitude 35000
Route DOTSS2 CLEEE PKE HIDAT KA27O FLYBY EZEEE TUL
Aircraft A320/M-SDE3FGHIRWY/LB1

Departure

Time 2026-04-21 02:54
Airport Los Angeles International Airport (KLAX)

Arrival

Time N/A
Airport Tulsa International Airport (KTUL)
Time Latitude Longitude Altitude Speed Heading
2026-04-21 02:25 33.94144 -118.40143 126 ft 0 kts 275°
2026-04-21 02:41 33.94144 -118.40142 125 ft 1 kts 275°
2026-04-21 02:42 33.94142 -118.40116 124 ft 4 kts 259°
2026-04-21 02:42 33.94153 -118.40090 122 ft 4 kts 200°
2026-04-21 02:42 33.94166 -118.40088 123 ft 1 kts 174°
2026-04-21 02:42 33.94167 -118.40088 123 ft 0 kts 174°
2026-04-21 02:47 33.94158 -118.40087 122 ft 2 kts 174°
2026-04-21 02:47 33.94136 -118.40084 123 ft 4 kts 174°
2026-04-21 02:47 33.94102 -118.40079 123 ft 6 kts 172°
2026-04-21 02:47 33.94048 -118.40071 124 ft 10 kts 173°
2026-04-21 02:48 33.93968 -118.40058 123 ft 12 kts 173°
2026-04-21 02:48 33.93894 -118.40021 124 ft 12 kts 131°
2026-04-21 02:48 33.93887 -118.39919 126 ft 13 kts 82°
2026-04-21 02:48 33.93899 -118.39806 124 ft 14 kts 83°
2026-04-21 02:49 33.93911 -118.39682 122 ft 16 kts 83°
2026-04-21 02:49 33.93925 -118.39547 123 ft 17 kts 82°
2026-04-21 02:49 33.93940 -118.39404 124 ft 18 kts 83°
2026-04-21 02:49 33.93956 -118.39247 122 ft 19 kts 83°
2026-04-21 02:50 33.93973 -118.39080 125 ft 21 kts 83°
2026-04-21 02:50 33.93991 -118.38902 125 ft 22 kts 83°
2026-04-21 02:50 33.94011 -118.38713 125 ft 23 kts 82°
2026-04-21 02:50 33.94032 -118.38516 125 ft 24 kts 83°
2026-04-21 02:51 33.94049 -118.38333 125 ft 20 kts 83°
2026-04-21 02:51 33.94064 -118.38190 125 ft 18 kts 83°
2026-04-21 02:51 33.94077 -118.38063 125 ft 14 kts 84°
2026-04-21 02:51 33.94032 -118.37997 124 ft 11 kts 167°
2026-04-21 02:52 33.93984 -118.38048 125 ft 11 kts 256°
2026-04-21 02:52 33.93981 -118.38073 125 ft 0 kts 265°
2026-04-21 02:53 33.93981 -118.38075 125 ft 2 kts 265°
2026-04-21 02:53 33.93964 -118.38287 124 ft 58 kts 261°
2026-04-21 02:53 33.93885 -118.39014 125 ft 114 kts 263°
2026-04-21 02:54 33.93769 -118.40141 130 ft 156 kts 262°
2026-04-21 02:54 33.93628 -118.41456 558 ft 161 kts 263°
2026-04-21 02:54 33.93495 -118.42819 1086 ft 167 kts 263°
2026-04-21 02:54 33.93372 -118.44232 1645 ft 172 kts 264°
2026-04-21 02:55 33.93260 -118.45681 2223 ft 175 kts 265°
2026-04-21 02:55 33.93111 -118.47151 2684 ft 182 kts 254°
2026-04-21 02:55 33.92791 -118.48638 3184 ft 183 kts 257°
2026-04-21 02:55 33.92315 -118.50080 3540 ft 196 kts 230°
2026-04-21 02:56 33.91248 -118.51232 3741 ft 218 kts 218°